This is the latest recevied weather packets stored in our database for station/object CT2HRB-13. If no packets are shown the sender has not sent any weather packets the latest 10 day(s).
| Time | Temp. | Humidity | Pressure | Rain* | Wind** | Luminosity | Snow |
|---|---|---|---|---|---|---|---|
| 1777909802 | 18.33° C | 53% | 1016.3 hPa | - | - | - | - |
| 1777909501 | 18.89° C | 52% | 1016.4 hPa | - | - | - | - |
| 1777909202 | 18.89° C | 55% | 1016.5 hPa | - | - | - | - |
| 1777908901 | 18.89° C | 55% | 1016.5 hPa | - | - | - | - |
| 1777908602 | 19.44° C | 54% | 1016.6 hPa | - | - | - | - |
| 1777908301 | 19.44° C | 53% | 1016.5 hPa | - | - | - | - |
| 1777908002 | 18.89° C | 54% | 1016.5 hPa | - | - | - | - |
| 1777907701 | 18.33° C | 55% | 1016.7 hPa | - | - | - | - |
| 1777907402 | 18.89° C | 53% | 1016.5 hPa | - | - | - | - |
| 1777907102 | 18.89° C | 52% | 1016.8 hPa | - | - | - | - |
| 1777906801 | 18.89° C | 55% | 1016.7 hPa | - | - | - | - |
| 1777906501 | 18.33° C | 56% | 1016.8 hPa | - | - | - | - |
| 1777906201 | 18.33° C | 54% | 1016.7 hPa | - | - | - | - |
| 1777905901 | 18.33° C | 54% | 1016.6 hPa | - | - | - | - |
| 1777905601 | 18.33° C | 53% | 1016.8 hPa | - | - | - | - |
| 1777905301 | 18.89° C | 53% | 1016.7 hPa | - | - | - | - |
| 1777905002 | 18.33° C | 51% | 1016.8 hPa | - | - | - | - |
| 1777904702 | 18.89° C | 50% | 1016.7 hPa | - | - | - | - |
| 1777904401 | 19.44° C | 51% | 1016.6 hPa | - | - | - | - |
| 1777904102 | 19.44° C | 52% | 1016.6 hPa | - | - | - | - |
| 1777903801 | 18.89° C | 52% | 1016.6 hPa | - | - | - | - |
| 1777903502 | 18.33° C | 54% | 1016.9 hPa | - | - | - | - |
| 1777903202 | 17.78° C | 55% | 1016.8 hPa | - | - | - | - |
| 1777902901 | 17.78° C | 55% | 1016.6 hPa | - | - | - | - |
| 1777902601 | 18.33° C | 53% | 1016.9 hPa | - | - | - | - |
* Rain since midnight (hover to see other rain measurements)
** Current wind speed in m/s (hover to see current wind gust speed)